Flag for Germany Weather past 2 weeks in Ilmenau, Thuringia, Germany

Now
81 °F

Sunny.


Feels Like: 79 °F
Forecast: 54 / 78 °F
Wind: 2 mph from Southeast

Location: Erfurt-Bindersleben

Current Time: Aug 2, 2015 at 5:16:35 PM

Latest Report: Aug 2, 2015 at 4:20 PM


Visibility: 10 mi

Pressure: 30.09 "Hg

Humidity: 24%

Dew point: 41 °F

Location of IlmenauLocation

Historic Weather in Ilmenau — Graph

°F

Ilmenau temperature yesterday

Maximum temperature yesterday: 77 °F (at 5:50 PM)
Minimum temperature yesterday: 50 °F (at 3:50 AM)
Average temperature yesterday: 63 °F

Past Weeks' High & Low Weather Summary

 TemperatureHumidityPressure
High86 °F (Jul 22, 4:20 PM)100% (Jul 19, 4:50 AM)30.15 "Hg (Jul 19, 4:50 AM)
Low46 °F (Jul 31, 3:50 AM)24% (Aug 2, 3:50 PM)29.62 "Hg (Jul 25, 4:50 AM)
Average65 °F65%29.91 "Hg
* Reported Jul 18 4:20 PM — Aug 2 4:20 PM, Ilmenau, Weather by CustomWeather, © 2015

Note: Actual official high and low records may vary slightly from our data, if they occured in-between our weather recording intervals... More about our weather records

Advertising

Ilmenau weather history for previous 24 hours

 ConditionsComfort  
Time TempWeatherWind HumidityBarometerVisibility
4:20 PM
Sun, Aug 2
81 °FSunny.2 mph24%30.09 "Hg10 mi
3:50 PM81 °FSunny.3 mph24%30.12 "Hg10 mi
3:20 PM81 °FSunny.1 mph26%30.12 "Hg10 mi
2:50 PM79 °FSunny.6 mph26%30.12 "Hg10 mi
2:20 PM79 °FSunny.1 mph26%30.12 "Hg10 mi
1:50 PM79 °FSunny.3 mph28%30.12 "Hg10 mi
1:20 PM77 °FPassing clouds.7 mph28%30.12 "HgN/A
12:50 PM77 °FSunny.1 mph32%30.12 "Hg10 mi
12:20 PM77 °FSunny.1 mph32%30.15 "Hg10 mi
11:50 AM75 °FSunny.3 mph36%30.15 "Hg10 mi
11:20 AM73 °FSunny.3 mph41%30.15 "Hg10 mi
10:50 AM72 °FSunny.3 mph44%30.12 "Hg10 mi
10:20 AM72 °FSunny.3 mph47%30.12 "Hg10 mi
9:50 AM70 °FSunny.1 mph50%30.12 "Hg10 mi
9:20 AM66 °FSunny.2 mph56%30.12 "Hg10 mi
8:50 AM63 °FSunny.5 mph68%30.12 "Hg10 mi
8:20 AM61 °FSunny.8 mph68%30.12 "Hg10 mi
7:50 AM57 °FSunny.9 mph77%30.09 "Hg10 mi
7:20 AM55 °FSunny.9 mph77%30.09 "Hg10 mi
6:50 AM52 °FSunny.9 mph82%30.09 "Hg10 mi
6:20 AM52 °FClear.9 mph82%30.07 "Hg10 mi
5:50 AM52 °FClear.3 mph77%30.07 "Hg10 mi
5:20 AM54 °FClear.5 mph77%30.07 "Hg10 mi
4:50 AM52 °FClear.6 mph82%30.07 "Hg10 mi
4:20 AM54 °FClear.5 mph77%30.07 "Hg10 mi
3:50 AM55 °FClear.5 mph72%30.04 "Hg10 mi
3:20 AM55 °FClear.3 mph77%30.04 "Hg10 mi
2:50 AM57 °FClear.3 mph72%30.04 "Hg10 mi
2:20 AM57 °FClear.2 mph72%30.04 "Hg10 mi
1:50 AM57 °FClear.3 mph72%30.04 "Hg10 mi
1:20 AM59 °FClear.5 mph68%30.04 "Hg10 mi
12:50 AM61 °FClear.3 mph59%30.04 "Hg10 mi
11:20 PM
Sat, Aug 1
68 °FClear.5 mph40%30.04 "Hg10 mi
10:20 PM70 °FClear.5 mph38%30.01 "Hg10 mi
9:50 PM70 °FSunny.3 mph35%30.01 "Hg10 mi
9:20 PM70 °FSunny.5 mph38%30.01 "Hg10 mi
8:50 PM72 °FSunny.3 mph36%29.98 "Hg10 mi
8:20 PM73 °FSunny.6 mph33%29.98 "Hg10 mi
7:50 PM75 °FSunny.5 mph31%29.98 "Hg10 mi
7:20 PM77 °FSunny.3 mph32%29.98 "Hg10 mi
6:50 PM77 °FSunny.5 mph30%29.98 "Hg10 mi
6:20 PM77 °FSunny.6 mph30%29.98 "Hg10 mi
5:50 PM77 °FSunny.2 mph32%29.98 "Hg10 mi
5:20 PM75 °FSunny.3 mph34%29.98 "Hg10 mi
Weather by CustomWeather, © 2015

See weather overviewHow to use our weather pages